Location: G�ppingen
(48.7089°N, 9.6563°E)
Time: 07:48:30
(UTC+02:00)

M-CUBED/EXP-1 PRIME - Pass Details

Date: 22 March 2019
Orbit: 430 x 671 km, 101.7° (Epoch: 23 April)

Event Time Altitude Azimuth Distance (km) Brightness Sun altitude
Rises 22:08:14 0° 6° (N) 2,910 ? -32.0°
Reaches altitude 10° 22:11:04 10° 346° (NNW) 2,037 ? -32.3°
Maximum altitude 22:13:50 17° 307° (NW) 1,665 ? -32.6°
Drops below altitude 10° 22:16:40 10° 268° (W) 2,083 ? -32.9°
Sets 22:19:36 0° 248° (WSW) 3,008 ? -33.3°
